Погода Кочубей

Погода Кочубей : погода сейчас, прогноз погоды и архив. Всё, что Вы хотите узнать о погоде Кочубей!

Поиск расширенной информации на нашем сайте:

Другие новости

Новости СМИ2

Главная страница сайта

Новости сайта

03.07.2017

Напоминаем, что на нашем специализированном сайте Метеоцентр.Азия вы можете получить высокодетализированные автоматические прогнозы погоды по пунктам России, СНГ и мира в авиационном формате (включающие направление и скорость ветра, видимость, явления погоды, количество и форму облачности, нижнюю и верхнюю границу облачности).


Погода Кочубей - сегодня

Время (UTC), дата Ветер
(°,м/с) 
Видим.   Явления Облачность Т
(°С)
Тd
(°С)
f(%) Тe
(°С)
Pmin
(гПа)
dP
(гПа)
Po
(мм)
O2
(г/м3)
Тmin Tmax R s Состояние
почвы
09 16.08.18 090 (В) 10-15{15}  20000 м    ясно 
+31.6 +9.4 25 +32  1014.8  -0.6  763  274           
12 16.08.18 080 (В) 10-14{16}  20000 м    ясно 
+30.8 +10 28 +32  1014.1  762  274           
15 16.08.18 070 (В) 8-12{15}  20000 м    ясно 
+27.3 +15.5 49 +36  1013.7  -0.4  762  276    +31.8       
18 16.08.18 070 (В) 3{12}  4000 м    ясно 
+23.7 +16.8 65 +35  1014.3  0.7  763  279           
21 16.08.18 040 (СВ) 4000 м    ясно 
+20.9 +17.1 79 +33  1013.2  -1.1  762  281           
00 17.08.18 020 (С) 4000 м    ясно 
+19.5 +17.1 86 +33  1012.3  -0.9  761  282           
03 17.08.18 360 (С) 20000 м    ясно 
+19.8 +18.2 90 +35  1012.3  -0.1  761  282  +18.9        сухая 
06 17.08.18 090 (В) 20000 м    4/0 средняя, верхняя 
[Ac trans|Cc]
+28.6 +18.7 55 +44  1012.3  0.1  761  273           
09 17.08.18 080 (В) 20000 м    3/0 средняя, верхняя 
[Ac trans|Cc]
+32.1 +13.7 33 +38  1011.4  -0.9  760  272           
12 17.08.18 070 (В) 8{12}  20000 м    ясно 
+31.9 +10.9 28 +34  1010.8  -0.6  760  272           
15 17.08.18 060 (СВ) 20000 м    ясно 
+28.8 +11.2 34 +31  1010.7  -0.1  760  275    +33       
18 17.08.18 060 (СВ) 4000 м    6/0 верхняя 
[Ci fib]
+22.7 +17.9 74 +36  1010.6  760  279           
21 17.08.18 300 (СЗ) 4000 м    ясно 
+21.6 +18.2 81 +36  1010  -0.6  759  279           
00 18.08.18 250 (З) 4000 м    ясно 
+19 +15.6 81 +29  1009.5  -0.5  759  283           
03 18.08.18 310 (СЗ) 20000 м    3/0 средняя 
[Ac cast]
+18.6 +14.1 75 +26  1009.8  0.3  759  284  +17.2        сухая 
06 18.08.18 320 (СЗ) 20000 м    4/0 средняя 
[Ac cast]
+30 +7.9 25 +30  1009.6  -0.3  759  274           
09 18.08.18 320 (СЗ) 20000 м    6/0 средняя, верхняя 
[Ac lent|Ci fib]
+33.9 +0.9 12 +34  1008.7  -1  758  272           
12 18.08.18 320 (СЗ) 20000 м    8/0 верхняя 
[Ci sp]
+34.8 -1.3 10 +35  1007.8  -0.8  758  271           
15 18.08.18 070 (В) 20000 м    8/0 верхняя 
[Ci sp]
+29.8 +8 26 +30  1008.8  758  274    +34.9       
18 18.08.18 180 (Ю) 4000 м    8/0 средняя 
[Ac trans]
+24.1 +16.4 62 +35  1010.2  1.5  760  278           
21 18.08.18 330 (СЗ) 4000 м    ясно 
+23.1 +13.7 55 +29  1010.1  -0.2  759  279           
00 19.08.18 010 (С) 5{11}  4000 м    ясно 
+20.5 +13.7 65 +27  1010.9  0.9  760  282           
03 19.08.18 020 (С) 20000 м    4/0 средняя 
[Ac trans]
+19.6 +6.7 43 +20  1012.3  1.4  761  285  +19.3        сухая 
06 19.08.18 030 (СВ) 5{12}  20000 м    8/6 600 м кучево-дожд., средняя, верхняя 
[Cb calv|Ac cast|Ci fib]
+22.1 +8.1 41 +22  1013.9  1.5  762  283           
09 19.08.18 060 (СВ) 7-10{11}  20000 м    3/0 средняя 
[Ac trans]
+26.5 +8.2 31 +27  1013.8  0.1  762  279           
Время (UTC), дата Ветер
(°,м/с) 
Видим.   Явления Облачность Т
(°С)
Тd
(°С)
f(%) Тe
(°С)
Pmin
(гПа)
dP
(гПа)
Po
(мм)
O2
(г/м3)
Тmin Tmax R s Состояние
почвы

Для получения пояснительной информации подведите курсор к названию столбца.

ПОГОДА Кочубей - архив

Всё, что Вы хотите узнать о погоде Кочубей - удобно и подробно!

Выберите нужную дату (начиная с 1 января 2015* года) и нажмите кнопку "Найти".
Будут отображены архивные сводки погоды по пункту Кочубей, начиная с указанной даты.


Отображать данные в формате CSV (для использования в таблицах Excel)


Внимание! Наш архив погоды предназначен исключительно для личного некоммерческого использования в познавательных целях. Если Вам необходимы официальные справки о состоянии погоды (для производственных, юридических, коммерческих и т.п. целей), обращайтесь в органы Росгидромета.

*Примечание: данная дата относится к архиву по метеостанциям СССР (Россия, СНГ, Балтия).
Архив по метеостанциям Зарубежной Европы и Азии (кроме Китая) хранится 10 дней, по другим регионам земного шара (Китай, Африка, Америка, Австралия, Океания) - 1 день.

Кочубей - район местоположения метеостанции


Название, широта, долгота, высота метеостанции:
Кочубей 44.4°ш. 46.6°д. -21 м над ур. моря [Российская Федерация]

Дополнительная информация

В oтличие oт бoльшинства пoгoдных сайтoв мы публикуем пoдрoбную метеoинфoрмацию в детальнoм прoфессиoнальнoм фoрмате.

Характеристики температуры и влажнoсти вoздуха измеряются на высoте 2 м в тени вдали oт зданий и деревьев.
Скoрoсть ветра измеряется на высoте 10 м (на урoвне рoста челoвека скoрoсть ветра ниже в 1.5-2 раза). Если метеoстанция нахoдится в гoрoде или в лесу, тo скoрoсть ветра занижена на 2-4 м/с пo сравнению с oткрытым местoм. Скoрoсть ветра над акватoриями крупных рек и oзёр, а также на вершинах хoлмoв на 2-5 м/с выше, чем в oбычных услoвиях.
Атмoсфернoе давление в разных тoчках местнoсти мoжет значительнo oтличаться oт давления на метеoстанции, в зависимoсти oт услoвий рельефа (при пoдъёме на 10 м давление пoнижается примернo на 1 мм рт.ст.).